Location: Newark
(40.7360°N, 74.1730°W)
Time: 08:34:14
(UTC-05:00)

N. Korean satellite - Visible Passes

Search period start: 29 January 2023 00:00
Search period end: 08 February 2023 00:00
Orbit: 407 x 444 km, 97.3° (Epoch: 28 January)

Date Brightness Start Highest point End Pass type
(mag) Time Alt. Az. Time Alt. Az. Time Alt. Az.
29 Jan 6.2 05:33:51 10° N 05:37:01 57° WNW 05:40:11 10° SSW visible
29 Jan 10.0 17:35:47 10° WSW 17:36:45 11° W 17:37:43 10° WNW visible
30 Jan 8.2 04:51:45 10° NNE 04:54:40 31° E 04:57:34 10° SSE visible
30 Jan 8.2 06:25:15 10° NW 06:26:38 12° WNW 06:28:02 10° W visible
31 Jan 6.5 05:41:24 10° N 05:44:29 43° WNW 05:47:35 10° SSW visible
01 Feb 7.7 04:58:58 10° NNE 05:02:01 39° E 05:05:06 10° S visible
01 Feb 8.4 06:33:42 10° WNW 06:33:55 10° WNW 06:34:07 10° WNW visible
02 Feb 9.8 04:18:33 10° E 04:19:15 11° E 04:19:58 10° ESE visible
02 Feb 6.9 05:48:41 10° N 05:51:40 34° WNW 05:54:38 10° SW visible
03 Feb 7.1 05:05:56 10° NNE 05:09:06 50° E 05:12:17 10° S visible
04 Feb 9.6 04:24:37 10° ENE 04:26:15 13° E 04:27:52 10° ESE visible
04 Feb 7.2 05:55:43 10° NNW 05:58:33 28° WNW 06:01:23 10° SW visible
05 Feb 6.6 05:12:40 10° NNE 05:15:53 65° E 05:19:08 10° S visible
06 Feb 9.4 04:30:50 10° NE 04:32:56 16° E 04:35:02 10° SE visible
06 Feb 7.4 06:02:30 10° NNW 06:05:09 23° WNW 06:07:49 10° SW visible
07 Feb 6.3 05:19:08 10° NNE 05:22:24 82° ESE 05:25:41 10° S visible
